{"data":{"norad_id":65302,"intl_designator":"2025-185F","name":"DOJO","alt_names":[],"object_type":"PAYLOAD","status":"ACTIVE","operator":null,"country":"RWA","launch_date":"2025-08-23","launch_site_code":"RLLB","launch_vehicle":null,"mission":null,"orbit_class":"UNKNOWN","rcs_meters":null,"size_class":null,"mass_kg":null,"dimensions":null,"purposes":[],"wikipedia_slug":null,"has_3d_model":false,"image_url":null,"decayed_at":null,"tle_current":{"epoch":"2026-09-21T19:26:59.551008Z","epoch_age_seconds":49032,"freshness":"FRESH","line1":"1 65302U 25185F   26264.81041147  .00005897  00000+0  76802-3 0  9997","line2":"2 65302  97.9636 347.4253 0015294 130.7782 229.4761 14.80897264 58132","mean_motion":14.80897264,"eccentricity":0.0015294,"inclination_deg":97.9636,"raan_deg":347.4253,"arg_perigee_deg":130.7782,"mean_anomaly_deg":229.4761,"bstar":0.00076802,"rev_number":5813,"period_min":97.238345630437,"perigee_km":615.78045683319,"apogee_km":637.20622011251,"semimajor_km":7004.6303384729,"source":"CELESTRAK","updated_at":"2026-09-22T09:00:30.255823Z"}}}